This is the latest recevied weather packets stored in our database for station/object EA1IQY-10. If no packets are shown the sender has not sent any weather packets the latest 10 day(s).
| Time | Temp. | Humidity | Pressure | Rain* | Wind** | Luminosity | Snow |
|---|---|---|---|---|---|---|---|
| 1777388214 | 33.33° C | 43% | 995.9 hPa | - | - | - | - |
| 1777387314 | 31.11° C | 43% | 995.8 hPa | - | - | - | - |
| 1777386413 | 30.56° C | 40% | 996.3 hPa | - | - | - | - |
| 1777385513 | 30° C | 60% | 996.4 hPa | - | - | - | - |
| 1777384613 | 30.56° C | 63% | 996.4 hPa | - | - | - | - |
| 1777383713 | 30.56° C | 87% | 996.7 hPa | - | - | - | - |
| 1777382813 | 31.11° C | 71% | 996.9 hPa | - | - | - | - |
| 1777381913 | 30.56° C | 91% | 997.2 hPa | - | - | - | - |
| 1777381013 | 30° C | 100% | 997.5 hPa | - | - | - | - |
| 1777380113 | 27.22° C | 100% | 997.7 hPa | - | - | - | - |
| 1777379212 | 27.22° C | 100% | 998 hPa | - | - | - | - |
| 1777378312 | 28.33° C | 100% | 998.2 hPa | - | - | - | - |
| 1777377412 | 25.56° C | 100% | 998.3 hPa | - | - | - | - |
| 1777376512 | 26.11° C | 100% | 998.4 hPa | - | - | - | - |
| 1777375612 | 27.22° C | 100% | 998.3 hPa | - | - | - | - |
| 1777374712 | 28.33° C | 100% | 998.4 hPa | - | - | - | - |
| 1777373812 | 25.56° C | 100% | 998.6 hPa | - | - | - | - |
| 1777372912 | 27.78° C | 100% | 998.8 hPa | - | - | - | - |
| 1777372011 | 24.44° C | 100% | 998.8 hPa | - | - | - | - |
| 1777371111 | 24.44° C | 100% | 998.9 hPa | - | - | - | - |
| 1777370211 | 22.78° C | 100% | 999 hPa | - | - | - | - |
| 1777369311 | 23.89° C | 100% | 999.1 hPa | - | - | - | - |
| 1777368411 | 22.78° C | 100% | 999.2 hPa | - | - | - | - |
| 1777367511 | 22.78° C | 100% | 999.2 hPa | - | - | - | - |
| 1777366644 | 22.78° C | 100% | 999.3 hPa | - | - | - | - |
* Rain since midnight (hover to see other rain measurements)
** Current wind speed in m/s (hover to see current wind gust speed)